Mojave, CA

6:23 PM PST on December 06, 2019 (GMT -0800)
Mojave

Weather History for KMHV - October, 2019

Change the Weather History Date:

Sunday, October 6, 2019

  Actual Average Record
Temperature  
Mean Temperature 68 °F -  
Max Temperature 84 °F 84 °F 97 °F (1964)
Min Temperature 51 °F 53 °F 40 °F (1969)
Cooling Degree Days 2    
Growing Degree Days 18 (Base 50)    
Moisture  
Dew Point 16 °F    
Average Humidity 15    
Maximum Humidity 26    
Minimum Humidity 7    
Precipitation  
Precipitation 0.00 in - - ()
Sea Level Pressure  
Sea Level Pressure 30.12 in    
Wind  
Wind Speed 7 mph (NNE)    
Max Wind Speed 16 mph    
Max Gust Speed 18 mph    
Visibility 10 miles    
Events      
Averages and records for this station are not official NWS values.
T = Trace of Precipitation, MM = Missing Value Source: NWS Daily Summary

Daily Weather History Graph

Daily Weather History Graph

Search for Another Location

Airport or City:

Astronomy

Oct. 06, 2019 Rise Set
Actual Time 6:51 AM PDT 6:29 PM PDT
Civil Twilight 6:25 AM PDT 6:55 PM PDT
Nautical Twilight 5:56 AM PDT 7:24 PM PDT
Astronomical Twilight 5:27 AM PDT 7:53 PM PDT
Moon 2:55 PM PDT (10/6) 12:10 AM PDT (10/6)
Length of Visible Light 12h 29m
Length of Day
11h 38m
First Quarter, 61% of the Moon is Illuminated
Oct 6
First Quarter
Oct 13
Full
Oct 21
Last Quarter
Oct 27
New
Nov 4
First Quarter

Hourly Weather History & Observations

Time (PDT) Temp. Dew Point Humidity Pressure Visibility Wind Dir Wind Speed Gust Speed Precip Events Conditions
12:00 AM 57.2 °F 15.8 °F 20% 30.08 in 10.0 mi NNW 5.8 mph - N/A   Clear
12:20 AM 55.4 °F 15.8 °F 21% 30.08 in 10.0 mi West 4.6 mph - N/A   Partly Cloudy
12:40 AM 53.6 °F 15.8 °F 22% 30.08 in 10.0 mi West 4.6 mph - N/A   Partly Cloudy
1:00 AM 55.4 °F 17.6 °F 23% 30.08 in 10.0 mi NW 8.1 mph - N/A   Scattered Clouds
1:20 AM 55.4 °F 17.6 °F 23% 30.08 in 10.0 mi NW 8.1 mph - N/A   Scattered Clouds
1:40 AM 55.4 °F 19.4 °F 25% 30.08 in 10.0 mi NW 9.2 mph - N/A   Mostly Cloudy
2:00 AM 57.2 °F 15.8 °F 20% 30.09 in 10.0 mi NNW 9.2 mph - N/A   Mostly Cloudy
2:20 AM 55.4 °F 17.6 °F 23% 30.09 in 10.0 mi NNW 10.4 mph - N/A   Mostly Cloudy
2:40 AM 55.4 °F 19.4 °F 25% 30.09 in 10.0 mi NNW 9.2 mph - N/A   Mostly Cloudy
3:00 AM 57.2 °F 19.4 °F 23% 30.09 in 10.0 mi North 8.1 mph - N/A   Mostly Cloudy
3:20 AM 57.2 °F 17.6 °F 21% 30.09 in 10.0 mi North 5.8 mph - N/A   Mostly Cloudy
3:40 AM 55.4 °F 17.6 °F 23% 30.10 in 10.0 mi North 5.8 mph - N/A   Mostly Cloudy
4:00 AM 53.6 °F 17.6 °F 24% 30.10 in 10.0 mi North 4.6 mph - N/A   Mostly Cloudy
4:20 AM 53.6 °F 17.6 °F 24% 30.10 in 10.0 mi North 4.6 mph - N/A   Scattered Clouds
4:40 AM 53.6 °F 17.6 °F 24% 30.10 in 10.0 mi North 4.6 mph - N/A   Partly Cloudy
5:00 AM 51.8 °F 15.8 °F 24% 30.10 in 10.0 mi North 4.6 mph - N/A   Partly Cloudy
5:20 AM 53.6 °F 15.8 °F 22% 30.11 in 10.0 mi North 4.6 mph - N/A   Partly Cloudy
5:40 AM 51.8 °F 15.8 °F 24% 30.12 in 10.0 mi North 4.6 mph - N/A   Scattered Clouds
6:00 AM 51.8 °F 15.8 °F 24% 30.12 in 10.0 mi NNE 3.5 mph - N/A   Scattered Clouds
6:20 AM 51.8 °F 15.8 °F 24% 30.12 in 10.0 mi Calm Calm - N/A   Scattered Clouds
6:40 AM 51.8 °F 15.8 °F 24% 30.14 in 10.0 mi Calm Calm - N/A   Partly Cloudy
7:00 AM 51.8 °F 17.6 °F 26% 30.14 in 10.0 mi North 4.6 mph - N/A   Clear
7:20 AM 51.8 °F 15.8 °F 24% 30.15 in 10.0 mi WNW 3.5 mph - N/A   Clear
7:40 AM 55.4 °F 17.6 °F 23% 30.15 in 10.0 mi West 4.6 mph - N/A   Clear
8:00 AM 60.8 °F 19.4 °F 20% 30.16 in 10.0 mi West 3.5 mph - N/A   Clear
8:20 AM 62.6 °F 19.4 °F 19% 30.17 in 10.0 mi Calm Calm - N/A   Clear
8:40 AM 64.4 °F 19.4 °F 18% 30.18 in 10.0 mi Calm Calm - N/A   Clear
9:00 AM 66.2 °F 19.4 °F 17% 30.18 in 10.0 mi ENE 5.8 mph - N/A   Clear
9:20 AM 69.8 °F 19.4 °F 15% 30.18 in 10.0 mi NE 12.7 mph - N/A   Clear
9:40 AM 71.6 °F 19.4 °F 14% 30.19 in 10.0 mi NE 11.5 mph - N/A   Clear
10:00 AM 73.4 °F 19.4 °F 13% 30.19 in 10.0 mi NE 11.5 mph - N/A   Clear
10:20 AM 75.2 °F 19.4 °F 12% 30.19 in 10.0 mi NE 10.4 mph - N/A   Clear
10:40 AM 75.2 °F 17.6 °F 11% 30.19 in 10.0 mi NE 11.5 mph - N/A   Clear
11:00 AM 77.0 °F 17.6 °F 11% 30.19 in 10.0 mi NE 11.5 mph - N/A   Clear
11:20 AM 77.0 °F 15.8 °F 10% 30.19 in 10.0 mi NE 11.5 mph - N/A   Clear
11:40 AM 78.8 °F 15.8 °F 9% 30.19 in 10.0 mi ENE 11.5 mph - N/A   Clear
12:00 PM 78.8 °F 15.8 °F 9% 30.18 in 10.0 mi NE 12.7 mph - N/A   Clear
12:20 PM 80.6 °F 15.8 °F 9% 30.18 in 10.0 mi NE 11.5 mph 17.3 mph N/A   Clear
12:40 PM 80.6 °F 17.6 °F 10% 30.17 in 10.0 mi East 10.4 mph - N/A   Clear
1:00 PM 80.6 °F 17.6 °F 10% 30.17 in 10.0 mi ENE 9.2 mph 18.4 mph N/A   Clear
1:20 PM 80.6 °F 17.6 °F 10% 30.15 in 10.0 mi ENE 11.5 mph 18.4 mph N/A   Clear
1:40 PM 82.4 °F 17.6 °F 9% 30.14 in 10.0 mi NE 11.5 mph 17.3 mph N/A   Clear
2:00 PM 84.2 °F 17.6 °F 8% 30.13 in 10.0 mi NE 16.1 mph - N/A   Clear
2:20 PM 84.2 °F 17.6 °F 8% 30.12 in 10.0 mi East 10.4 mph 18.4 mph N/A   Clear
2:40 PM 84.2 °F 17.6 °F 8% 30.11 in 10.0 mi East 12.7 mph - N/A   Clear
3:00 PM 84.2 °F 17.6 °F 8% 30.11 in 10.0 mi East 13.8 mph - N/A   Clear
3:20 PM 84.2 °F 17.6 °F 8% 30.10 in 10.0 mi ENE 8.1 mph 16.1 mph N/A   Clear
3:40 PM 84.2 °F 17.6 °F 8% 30.10 in 10.0 mi ENE 11.5 mph - N/A   Clear
4:00 PM 84.2 °F 17.6 °F 8% 30.09 in 10.0 mi East 9.2 mph 17.3 mph N/A   Clear
4:20 PM 84.2 °F 15.8 °F 8% 30.08 in 10.0 mi ENE 12.7 mph - N/A   Clear
4:40 PM 84.2 °F 15.8 °F 8% 30.08 in 10.0 mi ENE 10.4 mph - N/A   Clear
5:00 PM 84.2 °F 14.0 °F 7% 30.08 in 10.0 mi East 9.2 mph - N/A   Clear
5:20 PM 84.2 °F 14.0 °F 7% 30.07 in 10.0 mi ESE 9.2 mph - N/A   Clear
5:40 PM 82.4 °F 14.0 °F 8% 30.07 in 10.0 mi East 9.2 mph 15.0 mph N/A   Clear
6:00 PM 82.4 °F 14.0 °F 8% 30.07 in 10.0 mi East 8.1 mph - N/A   Clear
6:20 PM 80.6 °F 14.0 °F 8% 30.08 in 10.0 mi East 4.6 mph - N/A   Clear
6:40 PM 77.0 °F 14.0 °F 9% 30.08 in 10.0 mi ESE 4.6 mph - N/A   Clear
7:00 PM 77.0 °F 12.2 °F 9% 30.09 in 10.0 mi ESE 3.5 mph - N/A   Clear
7:20 PM 69.8 °F 12.2 °F 11% 30.09 in 10.0 mi North 5.8 mph - N/A   Clear
7:40 PM 69.8 °F 12.2 °F 11% 30.10 in 9.0 mi NNW 6.9 mph - N/A   Partly Cloudy
8:00 PM 68.0 °F 14.0 °F 12% 30.10 in 10.0 mi North 8.1 mph - N/A   Partly Cloudy
8:20 PM 68.0 °F 14.0 °F 12% 30.11 in 10.0 mi North 8.1 mph - N/A   Partly Cloudy
8:40 PM 64.4 °F 14.0 °F 14% 30.11 in 10.0 mi North 8.1 mph - N/A   Clear
9:00 PM 66.2 °F 14.0 °F 13% 30.12 in 10.0 mi North 9.2 mph - N/A   Partly Cloudy
9:20 PM 66.2 °F 14.0 °F 13% 30.12 in 10.0 mi North 9.2 mph - N/A   Scattered Clouds
9:40 PM 64.4 °F 14.0 °F 14% 30.12 in 10.0 mi NNW 9.2 mph - N/A   Partly Cloudy
10:00 PM 64.4 °F 14.0 °F 14% 30.12 in 10.0 mi NNW 9.2 mph - N/A   Scattered Clouds
10:20 PM 62.6 °F 14.0 °F 15% 30.12 in 10.0 mi NNW 8.1 mph - N/A   Mostly Cloudy
10:40 PM 62.6 °F 14.0 °F 15% 30.12 in 10.0 mi NW 10.4 mph - N/A   Mostly Cloudy
11:00 PM 60.8 °F 14.0 °F 16% 30.12 in 10.0 mi NNW 9.2 mph - N/A   Mostly Cloudy
11:20 PM 60.8 °F 14.0 °F 16% 30.12 in 10.0 mi NNW 10.4 mph - N/A   Mostly Cloudy
11:40 PM 60.8 °F 14.0 °F 16% 30.12 in 10.0 mi NNW 9.2 mph - N/A   Mostly Cloudy